Tracking 27079 objects as of 23-Mar-2023
HD Live streaming from Space Station
objects crossing your sky now

COSMOS 970 DEB

Track COSMOS 970 DEB now!
10-day predictions


NORAD ID: 10570
Int'l Code: 1977-121M
Perigee: 970.2 km
Apogee: 983.3 km
Inclination: 65.4 °
Period: 104.5 minutes
Semi major axis: 7347 km
RCS: 0.049 m2 (small)
Launch date: December 21, 1977
Source: Commonwealth of Independent States (former USSR) (CIS)
Launch site: TYURATAM MISSILE AND SPACE COMPLEX (TTMTR)

Note: This is SATELLITE DEBRIS
Your satellite tracking list
Your tracking list is empty




NASA's NSSDC Master Catalog

Two Line Element Set (TLE):
1 10570U 77121M   23081.75227947  .00003047  00000-0  30939-2 0  9998
2 10570  65.3637 207.1612 0008888 264.0217 221.6591 13.78390594244339
Source of the keplerian elements: AFSPC